STARLINK-36488, 67306

Orbit data source: Space-Track

STARLINK-36488, 67306 is a payload satellite owned by SpaceX/Seattle (US) in LEO that was launched on Sun, 04 Jan 2026 UTC via an FALCON 9 launch vehicle from the Air Force Eastern Test Range (AFETR). Payload-class satellites include a variety of spacecraft equipped with specific instruments for various scientific and technological missions. These include communications satellites like Starlink; space stations such as the ISS; scientific satellites like the Hubble; Earth observation satellites from companies like Planet Labs, Umbra, and HawkEye 360; GPS; miniature CubeSats for education and research; and military/defense satellites.

Loading next visibility...
Identifier
67306, 2026-002B
Orbit
LEO
Country
Flag of USUS
Related business
Manufacturer
SpaceX/Seattle
Mission
Operational Commercial Communications
Bus & Motor
STARLINK V2MO, Unknown motor
Mass
575 kg wet, ~530 kg dry
Launch date (UTC)
2026-01-04 (5 months ago)
Launch vehicle
FALCON 9
Launch site
Air Force Eastern Test Range (AFETR)
Object type
Payload
Rocket body
Debris
Shape & HBR
Box + 2 Pan, 17.7 m
Radar Cross Section
36.964 m², Large (>1 m²)

Expand to show TLE details & history
Last TLE update: 16 hours ago

TLE from 16 hours ago
0 STARLINK-36488
1 67306U 26002B   26171.20272077  .00036936  00000-0  13422-2 0  9997
2 67306  43.0035 106.6175 0001087 277.5360  82.5368 15.27651000 26750
Epoch: 2026-06-20T04:51Z
TLE epoch observation values (Epoch: 2026-06-20T04:51:55.074Z)
Latitude
-0.00003°
Longitude
125.21726°
Altitude
482.516 km
Speed
7.626 km/s
True Right ascension
07h 06m 28s
True Declination
0° 00' 00"
Sunlit
Object was in daylight at epoch
Visualization orbit readout
Latitude
Unknown
Longitude
Unknown
Altitude
Unknown
Speed
Unknown
Apparent Right ascension
Unknown
Apparent Declination
Unknown
Sunlit
N/A
Visualization observer readout
Local Sidereal Time
07:19:41
Azimuth
Unknown
Elevation
Unknown
Doppler factor
Unknown
Orbital elements
Apogee altitude
485.527 km
Perigee altitude
484.035 km
Semi-major axis
6,862.918 km
Eccentricity
0.00011
Inclination
43.0035°
RAAN
106.6175°
Arg. of periapsis
277.536°
True anomaly
82.54915°
Mean anomaly
82.5368°
Eccentric anomaly
82.54298°
Mean motion
3.81751 °/min
Orbital period
94.3 mins
BSTAR
0.0013422
Loading maneuver chart data...
Computing Atmospheric mass density...
Loading historical data...
Loading historical data...
Loading historical data...
Loading historical data...
Loading historical data...
Loading historical data...
Loading historical data...

Documentation

Showing up to 5 results
|